Regional Weather Roundup
Issued by NWS New Orleans/Baton Rouge, LA

Home | Current Version | Previous Version | Graphics & Text | Print | Product List | Glossary On
Versions: 1 2 3 4 5 6 7 8 9 10 11 12 13 14 15 16 17 18 19 20 21 22 23 24 25 26 27 28 29 30 31 32 33 34 35 36 37 38 39 40 41 42 43 44 45 46 47 48 49 50
623
ASUS44 KLIX 302010
RWRLIX
NEW ORLEANS REGIONAL WEATHER ROUNDUP
NATIONAL WEATHER SERVICE NEW ORLEANS LA
300 PM CDT TUE SEP 30 2014

NOTE: "FAIR" INDICATES FEW OR NO CLOUDS BELOW 12,000 FEET WITH NO
      SIGNIFICANT WEATHER AND/OR OBSTRUCTIONS TO VISIBILITY.
      SKY/WX - SKY CONDITION AND SIGNIFICANT WEATHER.
      TMP - AIR TEMPERATURE.     DP    - DEWPOINT TEMPERATURE.
      RH  - RELATIVE HUMIDITY.   PRES  - PRESSURE.
      HI  - HEAT INDEX.          WCI   - WIND CHILL INDEX.

*  THESE STATIONS ARE NOT NWS OR FAA STATIONS AND ARE NOT UNDER
   NWS QUALITY CONTROL.

LAZ038-040-048-061>063-065>067-069-302100-
SOUTHEAST LOUISIANA

CITY           SKY/WX    TMP DP  RH WIND       PRES   REMARKS
N.O. AUDUBON   NOT AVBL
N.O. INTL ARPT MOSUNNY   88  69  53 NE12      29.84F
N.O. LAKEFRONT SUNNY     86  70  58 E7        29.86F
N.O. DOWNTOWN*   N/A     86  68  54 NE9       29.86F
SLIDELL        PTSUNNY   85  70  60 SE5       29.85F
BATON ROUGE    PTSUNNY   87  69  54 E8        29.84F
BOOTHVILLE     MOSUNNY   82  74  76 NE10      29.86F
BELLE CHASSE   PTSUNNY   84  71  65 E10       29.85F
BOGALUSA*        N/A     89  67  47 E3        29.86F
GALLIANO*      NOT AVBL
NEW ROADS*       N/A     88  69  52 E3        29.84F
GONZALES*        N/A     88  73  60 NE3       29.83F
HAMMOND*       PTSUNNY   86  68  54 SW6       29.86F
HOUMA*         PTSUNNY  N/A N/A N/A E5        29.84F
PORT FOURCHON* PTCLDY    82  73  74 E7        29.88F

$$

MSZ070-080>082-302100-
SOUTHERN MISSISSIPPI

CITY           SKY/WX    TMP DP  RH WIND       PRES   REMARKS
MCCOMB         CLOUDY    85  66  53 NE5       29.86F
GULFPORT       MOSUNNY   81  72  74 SE10      29.86F
BILOXI         PTSUNNY   84  70  61 NE8       29.86S
PASCAGOULA     MOSUNNY   83  69  62 N5        29.87F
STENNIS ARPT*  MOSUNNY   84  70  61 S8        29.86F

$$

COASTAL OBSERVATIONS
LAKE AND NEARSHORE STATIONS

STATION/POSITION TIME  TEMP    WIND        PRES    WAVE
                       AIR SEA DIR/SP/G            HT/PER
                 (UTC) (F)     (DEG/KT/KT) (MB)    (FT/S)
PASCAGOULA       2000   82      70/  5/  7 1010.9
WAVELAND YACHT   2000   78     150/ 10/ 11 1010.6
GRAND ISLE       2000   83 82  140/  4/  7 1011.7
SOUTHWEST PASS   2000   86 87   60/ 10/ 12 1011.3
NEW CANAL        2000   81 77   50/  9/ 10 1011.3
SHELL BEACH      2000   80 76   70/ 10/ 12 1011.1

OFFSHORE STATIONS

STATION/POSITION TIME  TEMP    WIND        PRES    WAVE
                       AIR SEA DIR/SP/G            HT/PER
                 (UTC) (F)     (DEG/KT/KT) (MB)    (FT/S)
64 S DAUPHIN ISL 1858   79 83   60/ 12/ 16 1011.4    2/ 5

$$




USA.gov is the U.S. government's official web portal to all federal, state and local government web resources and services.